Home > Weather > Prince Albert > Past weeks

Flag for Canada Past Weather in Prince Albert, Saskatchewan, Canada — Yesterday and Last 2 Weeks

Now
66 °F

Passing clouds.


Feels Like: 66 °F
Forecast: 54 / 79 °F
Wind: 6 mph from West

Location: Prince Albert

Current Time: Jun 28, 2016 at 9:16:39 AM

Latest Report: Jun 28, 2016 at 8:00 AM


Visibility: 15 mi

Pressure: 30.13 "Hg

Humidity: 78%

Dew Point: 59 °F

Location of Prince AlbertLocation

Past Weather in Prince Albert — Graph

°F

Prince Albert Temperature Yesterday

Maximum temperature yesterday: 77 °F (at 2:00 PM)
Minimum temperature yesterday: 50 °F (at 4:00 AM)
Average temperature yesterday: 64 °F

High & Low Weather Summary for the Past Weeks

 TemperatureHumidityPressure
High84 °F (Jun 14, 4:00 PM)100% (Jun 26, 11:00 PM)30.26 "Hg (Jun 26, 11:00 PM)
Low36 °F (Jun 21, 4:52 AM)23% (Jun 21, 3:00 PM)29.59 "Hg (Jun 15, 1:00 AM)
Average62 °F67%29.89 "Hg
* Reported Jun 13 8:00 AM — Jun 28 8:00 AM, Prince Albert, Weather by CustomWeather, © 2016

Note: Actual official high and low records may vary slightly from our data, if they occured in-between our weather recording intervals... More about our weather records

Advertising

Prince Albert Weather History for the Previous 24 Hours

Scroll right to see more
 ConditionsComfort  
Time TempWeatherWind HumidityBarometerVisibility
8:00 AM
Tue, Jun 28
66 °FPassing clouds.6 mph78%30.13 "Hg15 mi
7:00 AM63 °FPassing clouds.3 mph88%30.14 "Hg15 mi
6:00 AM55 °FPassing clouds.No wind100%30.14 "Hg15 mi
5:00 AM54 °FPassing clouds.2 mph94%30.14 "Hg15 mi
4:00 AM55 °FPassing clouds.3 mph94%30.14 "Hg15 mi
3:00 AM57 °FPassing clouds.5 mph94%30.13 "Hg15 mi
2:00 AM59 °FPassing clouds.2 mph94%30.12 "Hg15 mi
1:00 AM57 °FPassing clouds.3 mph94%30.13 "Hg15 mi
12:00 AM57 °FPassing clouds.No wind88%30.14 "Hg15 mi
11:00 PM
Mon, Jun 27
63 °FPassing clouds.3 mph83%30.16 "Hg15 mi
10:00 PM63 °FPassing clouds.5 mph88%30.14 "Hg15 mi
9:00 PM68 °FPartly sunny.5 mph73%30.15 "Hg15 mi
8:00 PM72 °FPartly sunny.7 mph61%30.14 "Hg15 mi
7:00 PM73 °FPartly sunny.8 mph57%30.14 "Hg15 mi
6:00 PM73 °FPartly sunny.7 mph57%30.16 "Hg15 mi
5:00 PM70 °FBroken clouds.10 mph57%30.17 "Hg15 mi
4:00 PM64 °FThunderstorms. Cloudy.No wind78%30.21 "Hg15 mi
3:00 PM75 °FBroken clouds.9 mph57%30.17 "Hg15 mi
2:00 PM77 °FScattered showers. Broken clouds.9 mph57%30.18 "Hg15 mi
1:00 PM75 °FPartly sunny.7 mph69%30.20 "Hg15 mi
12:00 PM73 °FScattered clouds.9 mph69%30.22 "Hg15 mi
11:00 AM70 °FScattered clouds.8 mph73%30.24 "Hg15 mi
10:00 AM66 °FPartly sunny.9 mph83%30.24 "Hg15 mi
9:00 AM64 °FMostly cloudy.12 mph78%30.25 "Hg15 mi
Weather by CustomWeather, © 2016

See weather overviewHow to use our weather pages